Salida, CO

12:23 PM MST on February 10, 2016 (GMT -0700)
Salida

Weather History for KANK - February, 2013

Change the Weather History Date:

Monday, February 4, 2013

  Actual Average (KGUC) Record (KGUC)
Temperature  
Mean Temperature 34 °F -  
Max Temperature 49 °F 23 °F 44 °F (2015)
Min Temperature 20 °F 0 °F -25 °F (2016)
Degree Days  
Heating Degree Days 30    
Moisture  
Dew Point 4 °F    
Average Humidity 30    
Maximum Humidity 57    
Minimum Humidity 13    
Precipitation  
Precipitation 0.00 in - - ()
Sea Level Pressure  
Sea Level Pressure 30.10 in    
Wind  
Wind Speed 10 mph (West)    
Max Wind Speed 23 mph    
Max Gust Speed 32 mph    
Visibility 10 miles    
Events      
Averages and records for this station are not official NWS values.
T = Trace of Precipitation, MM = Missing Value Source: NWS Daily Summary

Daily Weather History Graph

Daily Weather History Graph

Search for Another Location

Airport or City:

Trip Planner

Search our weather history database for the weather conditions in past years. The results will help you decide how hot, cold, wet, or windy it might be!

Date:

Astronomy

Feb. 04, 2013 Rise Set
Actual Time 7:06 AM MST 5:30 PM MST
Civil Twilight 6:38 AM MST 5:57 PM MST
Nautical Twilight 6:07 AM MST 6:29 PM MST
Astronomical Twilight 5:36 AM MST 7:00 PM MST
Moon 1:44 AM MST (2/4) 11:57 AM MST (2/4)
Length of Visible Light 11h 19m
Length of Day
10h 23m
Last Quarter, 36% of the Moon is Illuminated
Feb 4
Last Quarter
Feb 10
New
Feb 17
First Quarter
Feb 25
Full
Mar 4
Last Quarter

Hourly Weather History & Observations

Time (MST) Temp. Windchill Dew Point Humidity Pressure Visibility Wind Dir Wind Speed Gust Speed Precip Events Conditions
12:15 AM 31.6 °F 25.1 °F 7.7 °F 37% 30.11 in 10.0 mi West 6.9 mph - N/A   Clear
12:35 AM 30.2 °F 22.6 °F 12.2 °F 47% 30.11 in 10.0 mi West 8.1 mph - N/A   Clear
12:55 AM 30.2 °F 24.3 °F 12.2 °F 47% 30.12 in 10.0 mi WSW 5.8 mph - N/A   Clear
1:15 AM 29.1 °F 21.3 °F 11.8 °F 49% 30.12 in 10.0 mi WNW 8.1 mph - N/A   Clear
1:35 AM 29.3 °F 23.2 °F 11.7 °F 48% 30.13 in 10.0 mi West 5.8 mph - N/A   Clear
1:55 AM 25.7 °F 21.5 °F 10.6 °F 53% 30.12 in 10.0 mi WSW 3.5 mph - N/A   Clear
2:15 AM 26.2 °F 18.6 °F 11.1 °F 53% 30.12 in 10.0 mi West 6.9 mph - N/A   Clear
3:55 AM 27.1 °F 19.7 °F 6.4 °F 42% 30.14 in 10.0 mi NW 6.9 mph - N/A   Clear
4:15 AM 24.6 °F 16.7 °F 7.0 °F 47% 30.14 in 10.0 mi West 6.9 mph - N/A   Clear
4:35 AM 22.3 °F 13.0 °F 7.2 °F 52% 30.14 in 10.0 mi WNW 8.1 mph - N/A   Clear
4:55 AM 20.7 °F 11.0 °F 7.7 °F 57% 30.14 in 10.0 mi West 8.1 mph - N/A   Clear
5:15 AM 22.5 °F 14.1 °F 8.4 °F 55% 30.14 in 10.0 mi West 6.9 mph - N/A   Clear
5:55 AM 20.5 °F - 7.3 °F 57% 30.14 in 10.0 mi Calm Calm - N/A   Clear
6:15 AM 23.2 °F 13.3 °F 6.3 °F 48% 30.14 in 10.0 mi NW 9.2 mph - N/A   Clear
6:35 AM 25.5 °F 16.2 °F 5.0 °F 42% 30.14 in 10.0 mi WNW 9.2 mph - N/A   Clear
6:55 AM 22.5 °F 13.2 °F 6.4 °F 50% 30.15 in 10.0 mi WNW 8.1 mph - N/A   Clear
7:15 AM 22.5 °F 12.4 °F 5.4 °F 48% 30.15 in 10.0 mi NW 9.2 mph - N/A   Clear
7:35 AM 24.4 °F 16.5 °F 4.6 °F 43% 30.15 in 10.0 mi NW 6.9 mph - N/A   Clear
7:55 AM 25.5 °F 16.2 °F 4.1 °F 40% 30.15 in 10.0 mi NW 9.2 mph - N/A   Clear
8:15 AM 27.0 °F 18.7 °F 3.2 °F 36% 30.15 in 10.0 mi WNW 8.1 mph - N/A   Clear
8:35 AM 27.3 °F 17.7 °F 3.6 °F 36% 30.15 in 10.0 mi NW 10.4 mph - N/A   Clear
8:55 AM 29.3 °F 20.8 °F 3.0 °F 33% 30.15 in 10.0 mi NW 9.2 mph - N/A   Clear
9:15 AM 30.9 °F 21.2 °F 3.2 °F 31% 30.14 in 10.0 mi North 12.7 mph - N/A   Clear
9:35 AM 33.3 °F 24.6 °F 3.2 °F 28% 30.13 in 10.0 mi NNW 11.5 mph 18.4 mph N/A   Clear
9:55 AM 35.8 °F 27.8 °F 2.3 °F 24% 30.13 in 10.0 mi NNW 11.5 mph - N/A   Clear
10:15 AM 37.9 °F 32.1 °F 2.1 °F 22% 30.12 in 10.0 mi NNW 8.1 mph - N/A   Clear
10:35 AM 40.8 °F 37.8 °F 3.7 °F 21% 30.12 in 10.0 mi North 4.6 mph - N/A   Clear
10:55 AM 45.5 °F 39.9 °F 3.9 °F 18% 30.11 in 10.0 mi SSW 11.5 mph 21.9 mph N/A   Clear
11:15 AM 46.2 °F 40.5 °F 3.2 °F 17% 30.10 in 10.0 mi SSW 12.7 mph 19.6 mph N/A   Clear
11:35 AM 46.4 °F 39.0 °F 3.2 °F 17% 30.09 in 10.0 mi SSW 19.6 mph 28.8 mph N/A   Clear
11:55 AM 46.2 °F 38.5 °F 4.3 °F 18% 30.08 in 10.0 mi SSW 20.7 mph 28.8 mph N/A   Clear
12:15 PM 45.9 °F 37.8 °F 4.1 °F 18% 30.07 in 10.0 mi SSW 21.9 mph 29.9 mph N/A   Clear
12:35 PM 45.7 °F 38.3 °F 3.9 °F 18% 30.07 in 10.0 mi SSW 18.4 mph 29.9 mph N/A   Clear
12:55 PM 46.4 °F 39.8 °F 3.4 °F 17% 30.06 in 10.0 mi SSW 16.1 mph 32.2 mph N/A   Clear
1:15 PM 46.9 °F - 3.4 °F 17% 30.06 in 10.0 mi SSW 20.7 mph 27.6 mph N/A   Clear
1:35 PM 44.1 °F 35.4 °F 2.3 °F 18% 30.05 in 10.0 mi SSW 21.9 mph 32.2 mph N/A   Clear
1:55 PM 46.8 °F - 0.9 °F 15% 30.04 in 10.0 mi SSW 21.9 mph 32.2 mph N/A   Clear
2:15 PM 48.4 °F - 1.0 °F 14% 30.04 in 10.0 mi WSW 20.7 mph 28.8 mph N/A   Clear
2:35 PM 49.5 °F - -0.4 °F 13% 30.03 in 10.0 mi WSW 20.7 mph 31.1 mph N/A   Clear
2:55 PM 48.7 °F - -0.9 °F 13% 30.03 in 10.0 mi WSW 21.9 mph 32.2 mph N/A   Clear
3:15 PM 48.2 °F - -1.3 °F 13% 30.03 in 10.0 mi WSW 20.7 mph 31.1 mph N/A   Clear
3:35 PM 48.4 °F - -0.6 °F 13% 30.04 in 10.0 mi WSW 23.0 mph 31.1 mph N/A   Clear
3:55 PM 47.8 °F - -1.5 °F 13% 30.03 in 10.0 mi SW 19.6 mph 26.5 mph N/A   Clear
4:15 PM 47.3 °F - -2.4 °F 13% 30.03 in 10.0 mi WSW 19.6 mph 27.6 mph N/A   Clear
4:35 PM 45.7 °F 38.3 °F -2.2 °F 14% 30.04 in 10.0 mi WSW 18.4 mph 26.5 mph N/A   Clear
4:55 PM 43.9 °F 37.5 °F -0.2 °F 16% 30.04 in 10.0 mi SW 12.7 mph 20.7 mph N/A   Clear
5:15 PM 41.9 °F 33.7 °F 1.2 °F 18% 30.05 in 10.0 mi SW 17.3 mph 26.5 mph N/A   Clear
5:35 PM 41.0 °F 34.3 °F 2.1 °F 20% 30.06 in 10.0 mi SW 11.5 mph 24.2 mph N/A   Clear
5:55 PM 39.9 °F 30.0 °F 3.4 °F 22% 30.06 in 10.0 mi SW 21.9 mph 28.8 mph N/A   Clear
6:15 PM 39.4 °F 30.1 °F 3.6 °F 22% 30.07 in 10.0 mi SW 18.4 mph 24.2 mph N/A   Clear
6:35 PM 39.7 °F 30.9 °F 3.2 °F 22% 30.07 in 10.0 mi WSW 17.3 mph 25.3 mph N/A   Clear
6:55 PM 39.7 °F 32.3 °F 3.0 °F 22% 30.10 in 10.0 mi WSW 12.7 mph 23.0 mph N/A   Clear
7:15 PM 38.7 °F 32.9 °F 3.2 °F 23% 30.11 in 10.0 mi West 8.1 mph - N/A   Clear
7:35 PM 38.1 °F 31.2 °F 3.9 °F 24% 30.12 in 10.0 mi West 10.4 mph - N/A   Clear
7:55 PM 37.9 °F 34.4 °F 3.2 °F 23% 30.12 in 10.0 mi WSW 4.6 mph - N/A   Clear
8:15 PM 35.8 °F 28.3 °F 4.5 °F 27% 30.12 in 10.0 mi SW 10.4 mph - N/A   Clear
8:35 PM 36.1 °F 26.9 °F 3.7 °F 26% 30.10 in 10.0 mi WSW 15.0 mph - N/A   Clear
8:55 PM 35.1 °F - 3.0 °F 26% 30.10 in 10.0 mi Calm Calm - N/A   Clear
9:15 PM 34.7 °F - 3.2 °F 27% 30.10 in 10.0 mi Calm Calm - N/A   Clear
9:35 PM 33.4 °F - 3.6 °F 28% 30.10 in 10.0 mi Calm Calm - N/A   Clear
9:55 PM 33.6 °F 30.6 °F 3.6 °F 28% 30.10 in 10.0 mi North 3.5 mph - N/A   Clear
10:15 PM 32.7 °F 25.7 °F 3.6 °F 29% 30.10 in 10.0 mi SSW 8.1 mph - N/A   Clear
10:35 PM 35.1 °F 30.1 °F 4.5 °F 28% 30.09 in 10.0 mi SSW 5.8 mph - N/A   Clear
10:55 PM 32.4 °F 26.0 °F 5.4 °F 32% 30.10 in 10.0 mi WSW 6.9 mph - N/A   Clear
11:15 PM 36.5 °F 33.9 °F 6.3 °F 28% 30.10 in 10.0 mi WNW 3.5 mph - N/A   Clear
11:35 PM 34.3 °F 25.0 °F 6.3 °F 31% 30.10 in 10.0 mi NW 13.8 mph - N/A   Clear
11:55 PM 35.4 °F - 6.4 °F 30% 30.12 in 10.0 mi Calm Calm - N/A   Clear